Regional Weather Roundup
Issued by NWS Nashville, TN

Home | Current Version | Previous Version | Text Only | Print | Product List | Glossary On
Versions: 1 2 3 4 5 6 7 8 9 10 11 12 13 14 15 16 17 18 19 20 21 22 23 24 25 26 27 28 29 30 31 32 33 34 35 36 37 38 39 40 41 42 43 44 45 46 47 48 49 50
000
ASUS44 KOHX 291610
RWROHX
MIDDLE TENNESSEE HOURLY WEATHER ROUNDUP
NATIONAL WEATHER SERVICE NASHVILLE TN
1100 AM CDT SUN MAR 29 2015

NOTE: "FAIR" INDICATES FEW OR NO CLOUDS BELOW 12,000 FEET WITH
NO SIGNIFICANT WEATHER AND/OR OBSTRUCTIONS TO VISIBILITY.

* THESE REPORTS ARE NOT UNDER NWS QUALITY CONTROL AND MAY NOT
  REPORT WEATHER SUCH AS PRECIPITATION AND FOG.


TNZ005>011-023>034-057-059-062>066-078-080-291700
...NORTHERN MIDDLE TENNESSEE...

CITY           SKY/WX    TMP DP  RH WIND       PRES   REMARKS
CLARKSVILLE    SUNNY     49  18  29 S15       30.27F
CROSSVILLE     SUNNY     44   9  23 S8        30.32F
GALLATIN         N/A     47  17  30 S9        30.33F
LIVINGSTON       N/A     47  13  25 SW10      30.31F
NASHVILLE      SUNNY     49  14  24 SE13G18   30.31F
PORTLAND       SUNNY     45  16  31 S16       30.29F
SMYRNA         SUNNY     49  17  28 S10G18    30.33F
SPARTA         SUNNY     46  18  31 S9        30.32F
$$
TNZ056-058-060-061-075>077-079-093>097-291700
...SOUTHERN MIDDLE TENNESSEE...

CITY           SKY/WX    TMP DP  RH WIND       PRES   REMARKS
COLUMBIA       SUNNY     50  19  29 SE10      30.29F
LEWISBURG      SUNNY     49  17  28 S8        30.32F
MCMINNVILLE    SUNNY     50  16  25 S8        30.32F
MURFREESBORO   SUNNY     48  17  29 S12       30.33F
SHELBYVILLE    SUNNY     50  18  27 S13       30.33F
TULLAHOMA      SUNNY     46  12  25 S9        30.32F
$$


...KEY TO REMARKS...
VSB - VISIBILITY IN MILES
WCI - WIND CHILL INDEX
HX  - HEAT INDEX



USA.gov is the U.S. government's official web portal to all federal, state and local government web resources and services.